TimeCDT,TemperatureF,Dew PointF,Humidity,Sea Level PressureIn,VisibilityMPH,Wind Direction,Wind SpeedMPH,Gust SpeedMPH,PrecipitationIn,Events,Conditions,WindDirDegrees,DateUTC
12:53 AM,44.1,41.0,89,29.87,10.0,Calm,Calm,-,N/A,,Clear,0,2012-10-20 05:53:00
1:53 AM,42.1,39.0,89,29.88,10.0,Calm,Calm,-,N/A,,Clear,0,2012-10-20 06:53:00
2:53 AM,43.0,39.9,89,29.88,10.0,Calm,Calm,-,N/A,,Clear,0,2012-10-20 07:53:00
3:53 AM,39.9,37.9,93,29.88,10.0,Calm,Calm,-,N/A,,Clear,0,2012-10-20 08:53:00
4:53 AM,41.0,37.9,89,29.88,10.0,Calm,Calm,-,N/A,,Clear,0,2012-10-20 09:53:00
5:53 AM,39.9,37.9,93,29.89,10.0,Calm,Calm,-,N/A,,Clear,0,2012-10-20 10:53:00
6:53 AM,39.0,37.9,96,29.91,10.0,Calm,Calm,-,N/A,,Clear,0,2012-10-20 11:53:00
7:53 AM,39.0,37.0,93,29.92,10.0,Calm,Calm,-,N/A,,Clear,0,2012-10-20 12:53:00
8:53 AM,46.9,43.0,86,29.93,10.0,Calm,Calm,-,N/A,,Clear,0,2012-10-20 13:53:00
9:53 AM,53.1,45.0,74,29.94,10.0,Calm,Calm,-,N/A,,Clear,0,2012-10-20 14:53:00
10:53 AM,62.1,44.1,52,29.92,10.0,ENE,4.6,-,N/A,,Clear,70,2012-10-20 15:53:00
11:53 AM,66.0,45.0,47,29.91,10.0,Calm,Calm,-,N/A,,Clear,0,2012-10-20 16:53:00
12:53 PM,71.1,44.1,38,29.88,10.0,Variable,5.8,-,N/A,,Clear,0,2012-10-20 17:53:00
1:53 PM,75.0,44.1,33,29.85,10.0,Variable,3.5,-,N/A,,Clear,0,2012-10-20 18:53:00
2:53 PM,78.1,45.0,31,29.83,10.0,ESE,5.8,-,N/A,,Clear,120,2012-10-20 19:53:00
3:53 PM,78.1,46.0,32,29.81,10.0,Variable,4.6,-,N/A,,Clear,0,2012-10-20 20:53:00
4:53 PM,78.1,46.9,33,29.80,10.0,East,5.8,-,N/A,,Clear,100,2012-10-20 21:53:00
5:53 PM,75.0,48.9,40,29.79,10.0,East,3.5,-,N/A,,Clear,100,2012-10-20 22:53:00
6:53 PM,69.1,50.0,51,29.80,10.0,Calm,Calm,-,N/A,,Clear,0,2012-10-20 23:53:00
7:53 PM,66.0,50.0,56,29.82,10.0,Calm,Calm,-,N/A,,Clear,0,2012-10-21 00:53:00
8:53 PM,64.9,48.9,56,29.83,10.0,Calm,Calm,-,N/A,,Clear,0,2012-10-21 01:53:00
9:53 PM,64.0,48.9,58,29.85,10.0,Calm,Calm,-,N/A,,Clear,0,2012-10-21 02:53:00
10:53 PM,64.9,48.9,56,29.86,10.0,Variable,3.5,-,N/A,,Clear,0,2012-10-21 03:53:00
11:53 PM,60.1,50.0,69,29.86,10.0,Calm,Calm,-,N/A,,Clear,0,2012-10-21 04:53:00